Regional Weather Roundup
Issued by NWS

Home | Current Version | Previous Version | Graphics & Text | Print | Product List | Glossary On
Versions: 1 2 3 4 5 6 7 8 9 10 11 12 13 14 15 16 17 18 19 20 21 22 23 24 25 26 27 28 29 30 31 32 33 34 35 36 37 38 39 40 41 42 43 44 45 46 47 48 49 50
000
ASUS43 KDTX 070601
RWRMI
MICHIGAN HOURLY REGIONAL WEATHER ROUNDUP
NATIONAL WEATHER SERVICE DETROIT/PONTIAC MI
200 AM EDT TUE JUL 07 2015

NOTE: "FAIR" INDICATES FEW OR NO CLOUDS BELOW 12,000 FEET WITH NO
SIGNIFICANT WEATHER AND/OR OBSTRUCTION TO VISIBILITY.

MIZ047>049-052>055-059>063-066>070-074>076-081>083-070700-
SOUTHEAST LOWER MICHIGAN

CITY           SKY/WX    TMP DP  RH WIND       PRES   REMARKS
ADRIAN         CLOUDY    72  67  84 S5        29.92S
6HR MIN TEMP:  72; 6HR MAX TEMP:  79;

ALMA           RAIN      73  68  86 CALM      29.85S
ANN ARBOR      CLOUDY    72  66  81 S8        29.90F
BAD AXE        CLOUDY    72  61  68 S12       29.86S
CARO           CLOUDY    74  64  71 S8        29.85F
DETROIT CITY   CLOUDY    75  64  68 S10       29.90F
6HR MIN TEMP:  73; 6HR MAX TEMP:  80;

DETROIT        CLOUDY    75  65  70 S8        29.91F
6HR MIN TEMP:  73; 6HR MAX TEMP:  79;

FLINT          CLOUDY    78  65  63 S9        29.87F
6HR MIN TEMP:  76; 6HR MAX TEMP:  82;

GROSSE ILE     CLOUDY    73  68  83 S10       29.90F
HILLSDALE      CLOUDY    74  69  85 S5        29.92F
HOWELL         CLOUDY    73  66  77 S5        29.89S
6HR MIN TEMP:  73; 6HR MAX TEMP:  79;


CITY           SKY/WX    TMP DP  RH WIND       PRES   REMARKS
JACKSON        CLOUDY    75  66  73 SW7       29.90S
6HR MIN TEMP:  75; 6HR MAX TEMP:  79;

LAMBERTVILLE   MOCLDY    75  65  70 S6        29.92F
6HR MIN TEMP:  75; 6HR MAX TEMP:  82;

LANSING        CLOUDY    76  66  71 S10       29.87F
6HR MIN TEMP:  75; 6HR MAX TEMP:  80;

LAPEER         FAIR      73  62  70 S6        29.88F
MASON          CLOUDY    73  64  74 CALM      29.89F
MONROE         CLOUDY    73  65  76 S7        29.90F
6HR MIN TEMP:  73; 6HR MAX TEMP:  78;

MT. CLEMENS    CLOUDY    70  67  90 S7        29.88F
6HR MIN TEMP:  70; 6HR MAX TEMP:  76;

PONTIAC        CLOUDY    74  64  71 S8        29.90S
6HR MIN TEMP:  74; 6HR MAX TEMP:  80;

PORT HOPE        N/A     73  61  65 VRB6      29.82F
6HR MIN TEMP:  73; 6HR MAX TEMP:  79;

PORT HURON     CLOUDY    68  64  88 S7        29.90F
TRI CITIES     CLOUDY    76  66  71 S10       29.84F
6HR MIN TEMP:  76; 6HR MAX TEMP:  82;

MIDLAND        LGT RAIN  75  65  70 SW8       29.83S
TROY           CLOUDY    76  64  65 SW9       29.91F
SAGINAW HB     CLOUDY    75  64  69 S12       29.84S
$$
MIZ043>046-050>051-056>058-064>065-071>073-077>080-070700-
SOUTHWEST LOWER MICHIGAN

CITY           SKY/WX    TMP DP  RH WIND       PRES   REMARKS
BATTLE CREEK   CLOUDY    77  68  73 S12       29.88F
6HR MIN TEMP:  77; 6HR MAX TEMP:  81;

BENTON HARBOR  CLOUDY    76  70  82 W12       29.86S
6HR MIN TEMP:  76; 6HR MAX TEMP:  82;

BIG RAPIDS     RAIN      70  67  91 S7        29.84F
6HR MIN TEMP:  70; 6HR MAX TEMP:  79; 6HR PCP:  0.88;

COLDWATER      CLOUDY    75  67  75 SW6       29.90S
6HR MIN TEMP:  75; 6HR MAX TEMP:  79;

FREMONT        HVY RAIN  70  69  98 SW9       29.83F
HOLLAND        CLOUDY    74  67  78 W14       29.86S
6HR MIN TEMP:  74; 6HR MAX TEMP:  82;

GRAND RAPIDS   LGT RAIN  77  69  76 NW8       29.85S
6HR MIN TEMP:  77; 6HR MAX TEMP:  81; 6HR PCP: TRACE;

IONIA          FAIR      77  67  70 SW10G22   29.84F
KALAMAZOO      CLOUDY    76  69  79 S9        29.87F
6HR MIN TEMP:  76; 6HR MAX TEMP:  81;

LUDINGTON      CLOUDY    64  61  91 N13       29.82F FOG
6HR MIN TEMP:  64; 6HR MAX TEMP:  79; 6HR PCP:  0.10;

MARSHALL       CLOUDY    76  67  73 S8        29.88F
MOUNT PLEASANT HVY RAIN  72  68  88 SW9       29.85R
6HR MIN TEMP:  72; 6HR MAX TEMP:  80; 6HR PCP:  0.05;

MUSKEGON       CLOUDY    70  67  90 SW13      29.84F
6HR MIN TEMP:  69; 6HR MAX TEMP:  82; 6HR PCP:  2.74;

SOUTH HAVEN    CLOUDY    74  68  80 W14       29.86S
$$
MIZ016>042-070700-
NORTHERN LOWER MICHIGAN

CITY           SKY/WX    TMP DP  RH WIND       PRES   REMARKS
ALPENA         LGT RAIN  74  67  78 SW8       29.78S
6HR MIN TEMP:  74; 6HR MAX TEMP:  81; 6HR PCP:  0.01;

BEAVER ISLAND  DRIZZLE   57  56  97 NW7       29.84S
6HR MIN TEMP:  57; 6HR MAX TEMP:  66;

BELLAIRE       CLOUDY    61  59  93 W8        29.81R
6HR MIN TEMP:  61; 6HR MAX TEMP:  82;

CADILLAC       CLOUDY    70  69  94 S12G20    29.82F
CHARLEVOIX     DRIZZLE   59  59  99 NW12G20   29.86R
6HR MIN TEMP:  59; 6HR MAX TEMP:  81;

FRANKFORT      CLOUDY    60  53  76 N12G22    29.85R HAZE
GAYLORD        CLOUDY    70  70 100 SW9       29.79F FOG
6HR MIN TEMP:  70; 6HR MAX TEMP:  79; 6HR PCP:  0.07;

GRAYLING       CLOUDY    70  69  95 SW7       29.82S FOG
6HR MIN TEMP:  70; 6HR MAX TEMP:  78;

HARBOR SPRINGS DRIZZLE   62  61  96 N9        29.80R
HOUGHTON LAKE  LGT RAIN  71  69  93 SW7       29.83S FOG
6HR MIN TEMP:  71; 6HR MAX TEMP:  77; 6HR PCP:  0.07;

MANISTEE       CLOUDY   N/A N/A N/A N9        29.83S
OSCODA         LGT RAIN  74  65  72 S13G18    29.80S
PELLSTON       LGT RAIN  62  60  93 NW13      29.79R
6HR MIN TEMP:  62; 6HR MAX TEMP:  81; 6HR PCP:  0.25;

ROGERS CITY    CLOUDY    71  67  89 N6        29.78R FOG
TRAVERSE CITY  CLOUDY    60  57  89 NW13      29.82R FOG
6HR MIN TEMP:  60; 6HR MAX TEMP:  82; 6HR PCP:  0.03;

$$
MIZ007>008-015-070700-
EASTERN UPPER MICHIGAN

CITY           SKY/WX    TMP DP  RH WIND       PRES   REMARKS
KINROSS        CLOUDY    57  57 100 NW15      29.78R
6HR MIN TEMP:  57; 6HR MAX TEMP:  77; 6HR PCP:  0.01;

MACKINAC ISLAN DRIZZLE   60  59  99 N13       29.79R
6HR MIN TEMP:  60; 6HR MAX TEMP:  77;

NEWBERRY       DRIZZLE   54  54  99 NW6       29.83R
6HR MIN TEMP:  54; 6HR MAX TEMP:  66; 6HR PCP:  0.30;

S. S. MARIE    LGT RAIN  55  53  93 NW12      29.75F FOG
6HR MIN TEMP:  55; 6HR MAX TEMP:  74; 6HR PCP:  1.24;

$$
MIZ004>006-011>014-085-070700-
CENTRAL UPPER MICHIGAN

CITY           SKY/WX    TMP DP  RH WIND       PRES   REMARKS
MANISTIQUE     CLOUDY    54  52  94 NW9       29.84S
ESCANABA       CLOUDY    55  54  94 NW6       29.89R
6HR MIN TEMP:  55; 6HR MAX TEMP:  59; 6HR PCP:  0.31;

MENOMINEE      MOCLDY    57  54  88 N8        29.88S
6HR MIN TEMP:  57; 6HR MAX TEMP:  72; 6HR PCP:  0.09;

SAWYER-GWINN   MOCLDY    52  48  84 N12       29.91F
6HR MIN TEMP:  52; 6HR MAX TEMP:  56; 6HR PCP:  0.10;

$$
MIZ001>003-009>011-084-070700-
WESTERN UPPER MICHIGAN

CITY           SKY/WX    TMP DP  RH WIND       PRES   REMARKS
IRON MOUNTAIN  PTCLDY    56  53  90 NW8       29.91R FOG
6HR MIN TEMP:  56; 6HR MAX TEMP:  59;

HOUGHTON       MOCLDY    52  50  93 NW7       29.95S FOG
6HR MIN TEMP:  52; 6HR MAX TEMP:  57;

COPPER HARBOR    N/A     49  44  83 N14       29.94R
6HR MIN TEMP:  49; 6HR MAX TEMP:  52;

IRONWOOD       CLOUDY    54  48  82 N6        29.99R
6HR MIN TEMP:  54; 6HR MAX TEMP:  57;

$$

ABBREVIATIONS USED IN REMARKS
   TC - TEMPERATURE IN CELSIUS
  WCI - WIND CHILL INDEX
   HX - HEAT INDEX
  VSB - VISIBILITY




USA.gov is the U.S. government's official web portal to all federal, state and local government web resources and services.